📊 Raw Sensor Data
Showing records 38076 to 38100 of 84,923 total
| ID | Distance (ft) | Battery V | Battery A | Int Temp (°F) | Int Humid (%) | Ext Temp (°F) | Solar V | RSSI | SNR | Time Stamp |
|---|---|---|---|---|---|---|---|---|---|---|
| 46860 | 14.9 | 3.89 | 0 | 98 | 48 | 87 | 5.10 | -69 | 8 | 07/20/2025 05:15 PM |
| 46859 | 15.0 | 3.89 | 0 | 99 | 46 | 90 | 5.10 | -71 | 8 | 07/20/2025 05:00 PM |
| 46858 | 14.9 | 3.89 | 0 | 99 | 45 | 91 | 5.10 | -72 | 8 | 07/20/2025 04:30 PM |
| 46857 | 14.9 | 3.89 | 0 | 98 | 45 | 90 | 5.10 | -69 | 8 | 07/20/2025 04:15 PM |
| 46856 | 14.9 | 3.89 | 0 | 97 | 44 | 86 | 5.10 | -69 | 8 | 07/20/2025 04:00 PM |
| 46855 | 14.9 | 3.89 | 0 | 97 | 43 | 89 | 5.10 | -70 | 7 | 07/20/2025 03:45 PM |
| 46854 | 15.0 | 3.89 | 0 | 96 | 43 | 90 | 5.10 | -71 | 8 | 07/20/2025 03:30 PM |
| 46853 | 14.9 | 3.92 | 0 | 95 | 43 | 87 | 5.10 | -70 | 7 | 07/20/2025 03:15 PM |
| 46852 | 14.9 | 3.89 | 0 | 95 | 42 | 85 | 5.10 | -70 | 8 | 07/20/2025 03:00 PM |
| 46851 | 15.0 | 4.11 | 0 | 94 | 42 | 84 | 5.10 | -71 | 7 | 07/20/2025 02:45 PM |
| 46850 | 14.9 | 3.89 | 0 | 92 | 42 | 85 | 5.10 | -69 | 7 | 07/20/2025 02:30 PM |
| 46849 | 14.9 | 3.88 | 0 | 92 | 41 | 87 | 5.10 | -69 | 8 | 07/20/2025 02:15 PM |
| 46848 | 14.9 | 3.92 | 0 | 91 | 41 | 83 | 5.10 | -69 | 8 | 07/20/2025 02:00 PM |
| 46847 | 15.0 | 4.10 | 0 | 88 | 42 | 82 | 5.10 | -70 | 8 | 07/20/2025 01:45 PM |
| 46846 | 15.0 | 4.08 | 0 | 88 | 42 | 81 | 5.10 | -69 | 8 | 07/20/2025 01:30 PM |
| 46845 | 15.0 | 3.89 | 0 | 86 | 43 | 82 | 5.10 | -70 | 7 | 07/20/2025 01:15 PM |
| 46844 | 15.0 | 3.89 | 0 | 85 | 43 | 78 | 5.10 | -71 | 7 | 07/20/2025 01:00 PM |
| 46843 | 15.0 | 4.05 | 0 | 84 | 43 | 79 | 5.10 | -69 | 8 | 07/20/2025 12:45 PM |
| 46842 | 15.0 | 3.89 | 0 | 84 | 43 | 80 | 5.10 | -71 | 7 | 07/20/2025 12:30 PM |
| 46841 | 15.0 | 3.89 | 0 | 82 | 43 | 81 | 5.10 | -72 | 7 | 07/20/2025 12:15 PM |
| 46840 | 15.1 | 3.89 | 0 | 81 | 43 | 82 | 5.10 | -71 | 8 | 07/20/2025 12:00 PM |
| 46839 | 15.0 | 3.89 | 0 | 79 | 43 | 81 | 5.10 | -70 | 8 | 07/20/2025 11:45 AM |
| 46838 | 15.1 | 3.89 | 0 | 79 | 43 | 78 | 5.10 | -71 | 8 | 07/20/2025 11:30 AM |
| 46837 | 15.1 | 3.89 | 0 | 78 | 43 | 74 | 5.10 | -70 | 8 | 07/20/2025 11:15 AM |
| 46836 | 15.1 | 3.89 | 0 | 77 | 42 | 80 | 5.10 | -72 | 8 | 07/20/2025 11:00 AM |